NATO IVA

operational
NORAD ID: 21047 Int'l Des: 1991-001 Owner: NATO Country: I-NATO
HEOCIRCULAR

关于 NATO IVA

正在加载描述...

实时位置

正在加载3D地球...

即将过境

高度历史

Altitude vs Time

uPlot chart will show altitude changes over time

两行轨道根数

1 21047U 91001A 26062.68318789 -.00000186 00000-0 00000+0 0 9996
2 21047 13.0349 355.3881 0005421 256.5606 283.7358 0.98284635127080
Epoch: Mar 3, 2026 • Age: 27 hours

当前状态

高度 36348.2 km
速度 3.05 km/s
星下点 -5.90°S, 125.88°E
发射日期 Jan 8, 1991
运行时间 35.1 years
类型 other

技术详情

分类 Payload
质量 1430.00 kg
干质量 731.00 kg
总质量 1430.00 kg
长度 2.10 m
直径 1.90 m
跨度 16.00 m
形状 Box + 2 Pan
制造商 BAES
平台类型 ECS
阶段状态 In Orbit
所有者/国家 NATO/I-NATO

大型星座

Loading constellations...